"Pseudo-MPEC" for P11JWp2

Created 2023 Oct 1 2:22:09 UT using Find_Orb

Click here for an explanation of pseudo-MPECs

 
 Astrometry: 
     P11JWp2* C2023 09 18`bw8\0UcJvmsSpk;E=1dZQvJ00LS#bY3qvwArDoL:`BU+_@osLL5F51
     P11JWp2  C2023 09 18Hvy$`AstrometryKWcg7Q_g(9redacted;Lu?@[auAojsAbDl;HSF51
     P11JWp2  C2023 09 18fpclickTqGm^OsherewUIqu^XpYY@J,;@I_3db@+Bfor699^,QgYF51
     P11JWp2  C2023 09 18(C(yAXikcJQ$EX?explanationxJHhc;IlH(Nk1NcR`,,+IW\N7FF51
     P11JWp2 KC2023 09 19.12670622 06 11.840+22 46 16.70   ~9J47       VNEOCPV06
     P11JWp2 KC2023 09 19.13464922 06 11.360+22 46 10.60   ~9J47       VNEOCPV06
     P11JWp2 KC2023 09 19.15052422 06 10.480+22 46 00.40   ~9J47       VNEOCPV06

Station data:
(F51) Pan-STARRS 1, Haleakala  (N20.707234 W156.255910)  US/Hawaii.
   Observers J. Bulger, T. Lowe, A. Schultz, M. Willman. Measurers K.
   Chambers, S. Chastel, T. de Boer, L. Denneau, J. Fairlamb, H. Flewelling,
   M. Huber, C.-C. Lin, E. Magnier, Y. Ramanjooloo, R. Wainscoat, R. Weryk.
   1.8-m Ritchey-Chrétien + CCD.
(V06) Catalina Sky Survey-Kuiper  (N32.416844 W110.732550)  US/Arizona.
   Observers T. A. Pruyne, B. M. Africano, E. J. Christensen, G. A. Farneth,
   D. C. Fuls, A. R. Gibbs, A. D. Grauer, H. Gröller, J. A. Johnson, R. A.
   Kowalski, S. M. Larson, G. J. Leonard, D. Rankin, R. L. Seaman, F. C.
   Shelly, K. W. Wierzchoś. 1.55-m reflector + CCD.

Orbital elements:  P11JWp2
   Perihelion 2022 Jun 25.83235 +/- 280 TT = 19:58:35 (JD 2459756.33235)
Epoch 2023 Sep 19.0 TT = JDT 2460206.5   Earth MOID: 0.6975      AutoNEOCP
M 168.81488029 +/- 100              (J2000 ecliptic)
n   0.37500447 +/- 0.0674           Peri.  285.13518 +/- 52
a   1.90448877 +/- 0.228            Node   251.80316 +/- 20
e   0.1529351 +/- 0.133             Incl.   18.25426 +/- 2.8
P   2.63/959.97d           H 19.62  G  0.15   U 11.0  SR
q 1.61322554 +/- 0.168    Q 2.19575200 +/- 0.723
From 7 observations 2023 Sept. 18-19 (20.5 hr); mean residual 0".22
Residuals in arcseconds: 
230918 F51  .10+  .03-    230918 F51  .26-  .12-    230919 V06  .14-  .17+    
230918 F51  .15+  .07-    230919 V06  .38+  .27+    
230918 F51  .00   .22+    230919 V06  .17-  .44-    

Ephemerides (geocentric):
Date (UTC) HH   RA             Dec           delta  r     elong  mag " sig PA
---- --------  ------------   ------------  ------ ------ -----  --- --------
2023 10 01 02  21 57 44.767   +20 16 25.08  1.3326 2.1943 139.7 22.9  588 150
2023 10 01 03  21 57 43.496   +20 15 51.97  1.3328 2.1943 139.7 22.9  592 150
2023 10 01 04  21 57 42.229   +20 15 18.84  1.3331 2.1943 139.7 22.9  596 150
2023 10 01 05  21 57 40.965   +20 14 45.72  1.3333 2.1943 139.6 22.9  600 150
2023 10 01 06  21 57 39.705   +20 14 12.58  1.3335 2.1943 139.6 22.9  604 150
2023 10 01 07  21 57 38.449   +20 13 39.44  1.3337 2.1943 139.6 22.9  607 150
2023 10 01 08  21 57 37.196   +20 13 06.30  1.3339 2.1943 139.6 22.9  611 151
2023 10 01 09  21 57 35.947   +20 12 33.15  1.3341 2.1943 139.5 22.9  615 151
2023 10 01 10  21 57 34.702   +20 11 59.99  1.3343 2.1943 139.5 22.9  619 151
2023 10 01 11  21 57 33.460   +20 11 26.82  1.3345 2.1943 139.5 22.9  623 151
2023 10 01 12  21 57 32.222   +20 10 53.65  1.3348 2.1943 139.5 22.9  627 151
2023 10 01 13  21 57 30.987   +20 10 20.48  1.3350 2.1943 139.4 22.9  631 151
2023 10 01 14  21 57 29.756   +20 09 47.30  1.3352 2.1944 139.4 22.9  634 151
2023 10 01 15  21 57 28.529   +20 09 14.11  1.3354 2.1944 139.4 22.9  638 151
2023 10 01 16  21 57 27.305   +20 08 40.92  1.3356 2.1944 139.3 22.9  642 151
2023 10 01 17  21 57 26.085   +20 08 07.72  1.3358 2.1944 139.3 22.9  646 151
2023 10 01 18  21 57 24.868   +20 07 34.51  1.3360 2.1944 139.3 22.9  650 151
2023 10 01 19  21 57 23.656   +20 07 01.30  1.3363 2.1944 139.3 22.9  654 151
2023 10 01 20  21 57 22.446   +20 06 28.09  1.3365 2.1944 139.2 22.9  658 151
2023 10 01 21  21 57 21.241   +20 05 54.87  1.3367 2.1944 139.2 22.9  662 151
2023 10 01 22  21 57 20.039   +20 05 21.64  1.3369 2.1944 139.2 22.9  666 151
2023 10 01 23  21 57 18.840   +20 04 48.41  1.3371 2.1944 139.2 22.9  670 152
2023 10 02 00  21 57 17.646   +20 04 15.17  1.3374 2.1944 139.1 22.9  674 152
2023 10 02 01  21 57 16.455   +20 03 41.93  1.3376 2.1944 139.1 22.9  678 152
2023 10 02 02  21 57 15.267   +20 03 08.69  1.3378 2.1944 139.1 22.9  682 152
2023 10 02 03  21 57 14.084   +20 02 35.43  1.3380 2.1944 139.0 22.9  686 152
2023 10 02 04  21 57 12.903   +20 02 02.18  1.3382 2.1944 139.0 22.9  690 152
2023 10 02 05  21 57 11.727   +20 01 28.91  1.3384 2.1945 139.0 22.9  694 152
2023 10 02 06  21 57 10.554   +20 00 55.65  1.3387 2.1945 139.0 22.9  698 152
2023 10 02 07  21 57 09.385   +20 00 22.38  1.3389 2.1945 138.9 22.9  702 152
2023 10 02 08  21 57 08.219   +19 59 49.10  1.3391 2.1945 138.9 22.9  706 152
2023 10 02 09  21 57 07.057   +19 59 15.82  1.3393 2.1945 138.9 22.9  710 152
2023 10 02 10  21 57 05.899   +19 58 42.53  1.3395 2.1945 138.9 22.9  714 152
2023 10 02 11  21 57 04.745   +19 58 09.24  1.3398 2.1945 138.8 22.9  718 152
2023 10 02 12  21 57 03.594   +19 57 35.95  1.3400 2.1945 138.8 22.9  723 152
2023 10 02 13  21 57 02.446   +19 57 02.65  1.3402 2.1945 138.8 22.9  727 153
2023 10 02 14  21 57 01.303   +19 56 29.34  1.3404 2.1945 138.7 22.9  731 153
2023 10 02 15  21 57 00.163   +19 55 56.04  1.3407 2.1945 138.7 22.9  735 153
2023 10 02 16  21 56 59.026   +19 55 22.72  1.3409 2.1945 138.7 22.9  739 153
2023 10 02 17  21 56 57.894   +19 54 49.41  1.3411 2.1945 138.7 22.9  743 153
2023 10 02 18  21 56 56.765   +19 54 16.09  1.3413 2.1945 138.6 22.9  747 153
2023 10 02 19  21 56 55.639   +19 53 42.76  1.3416 2.1945 138.6 22.9  752 153
2023 10 02 20  21 56 54.517   +19 53 09.43  1.3418 2.1946 138.6 22.9  756 153
2023 10 02 21  21 56 53.399   +19 52 36.10  1.3420 2.1946 138.5 22.9  760 153
2023 10 02 22  21 56 52.285   +19 52 02.76  1.3422 2.1946 138.5 22.9  764 153
2023 10 02 23  21 56 51.174   +19 51 29.42  1.3425 2.1946 138.5 22.9  768 153
2023 10 03 00  21 56 50.067   +19 50 56.07  1.3427 2.1946 138.5 22.9  773 153
2023 10 03 01  21 56 48.964   +19 50 22.73  1.3429 2.1946 138.4 22.9  777 153